Regional Weather Roundup
Issued by NWS

Home | Current Version | Previous Version | Graphics & Text | Print | Product List | Glossary On
Versions: 1 2 3 4 5 6 7 8 9 10 11 12 13 14 15 16 17 18 19 20 21 22 23 24 25 26 27 28 29 30 31 32 33 34 35 36 37 38 39 40 41 42 43 44 45 46 47 48 49 50
889
ASUS45 KSLC 281110
RWRUT

UTAH REGIONAL WEATHER ROUNDUP
NATIONAL WEATHER SERVICE SALT LAKE CITY UT
500 AM MDT THU APR 28 2016

UTZ001>011-023>025-281200-

NORTHERN UTAH

CITY           SKY/WX    TMP DP  RH WIND       PRES   REMARKS
BRIGHAM CITY   MOCLDY    50  34  53 NE8       29.70S
HILL AFB       CLOUDY    46  35  63 E15       29.68S
LOGAN          MOCLDY    39  35  86 NE6       29.73R WCI  35
OGDEN          CLOUDY    48  34  58 NE13      29.67F
PROVO AIRPORT  CLOUDY    45  39  81 CALM      29.69R
SALT LAKE CITY CLOUDY    47  42  83 S5        29.67S
VERNAL         CLOUDY    45  30  55 NE9       29.73R
WENDOVER       CLOUDY    45  39  81 CALM      29.69S
HEBER CITY     MIX PCPN  41  39  93 N7        29.69S

$$

UTZ012>022-026-027-281200-

SOUTHERN/CENTRAL UTAH

CITY           SKY/WX    TMP DP  RH WIND       PRES   REMARKS
BLANDING       CLOUDY    41  40  96 N6        29.79F
BRYCE CANYON   LGT SNOW  32  31  96 SE8       29.70S FOG     WCI  25
CEDAR CITY     FOG       35  34  96 CALM      29.64R VSB 3/4
DELTA          PTCLDY    37  37 100 N5        29.67S WCI  34
HANKSVILLE     MOCLDY    45  43  93 CALM      29.70S
MILFORD        CLOUDY    38  37  97 N5        29.65S WCI  34
MOAB/CYNLANDS  LGT RAIN  45  43  93 SE6       29.68
PRICE          CLOUDY    34  32  92 NW5       29.70S WCI  30
ST GEORGE      CLOUDY    48  37  66 S5        29.62S

$$

REGIONAL REPORTS     COLORADO/ARIZONA

CITY           SKY/WX    TMP DP  RH WIND       PRES   REMARKS
CRAIG, CO      CLOUDY    35  30  82 NE5       29.78S WCI  31
GRAND JUNCTION LGT RAIN  46  40  79 SE9       29.70R
RIFLE          CLOUDY    43  34  70 NE5       29.73F
MONTROSE       CLOUDY    44  38  79 CALM      29.74S
CORTEZ         CLOUDY    43  39  86 SE6       29.75R
PAGE, AZ       LGT RAIN  49  46  90 CALM      29.66R FOG
GRAND CANYON   CLOUDY    37  32  82 CALM      29.69S
KINGMAN        MOCLDY    43  40  89 S6        29.64S
FLAGSTAFF      MOCLDY    39  26  59 SW17      29.70F WCI  30

$$

REGIONAL REPORTS    NEVADA/IDAHO/WYOMING

CITY           SKY/WX    TMP DP  RH WIND       PRES   REMARKS
LAS VEGAS, NV  CLOUDY    57  42  57 W15       29.57R
ELY            LGT RAIN  36  35  96 N13       29.69S WCI  27
ELKO           LGT RAIN  40  36  86 E3        29.75F
POCATELLO, ID  CLEAR     37  29  72 NE6       29.80S WCI  32
BURLEY         CLEAR     39  32  76 E6        29.78R WCI  35
EVANSTON, WY   CLOUDY    32  26  78 NE23G30   29.75S WCI  19
ROCK SPRINGS   CLOUDY    31  26  82 E20       29.84S WCI  19

$$




USA.gov is the U.S. government's official web portal to all federal, state and local government web resources and services.